DW2128 Weather Reports


Display with metric or nautical units.
time (UTC)temp
F
wind
direction
speed
MPH
gust
MPH
rain 1hr
in
rain 24hr
in
rain mn
in
humidity
%
barometer
mb
20260510225032 80 355 0.0 0.0 0.00 0.00 0.00 44 1011.6
20260510224823 80 355 0.0 0.0 0.00 0.00 0.00 42 1011.8
20260510223537 80 316 0.0 0.0 0.00 0.00 0.00 44 1011.8
20260510223321 80 14 0.0 0.0 0.00 0.00 0.00 42 1011.9
20260510222038 79 355 0.0 0.0 0.00 0.00 0.00 44 1011.9
20260510221823 79 355 0.0 0.0 0.00 0.00 0.00 44 1012.0
20260510220538 79 11 0.0 0.0 0.00 0.00 0.00 41 1012.0
20260510220326 79 9 0.0 0.0 0.00 0.00 0.00 43 1012.0
20260510215040 79 5 0.0 0.0 0.00 0.00 0.00 43 1012.0
20260510214827 79 5 0.0 0.0 0.00 0.00 0.00 41 1012.2
20260510213521 78 5 0.0 0.0 0.00 0.00 0.00 46 1012.2
20260510213346 78 9 0.0 0.0 0.00 0.00 0.00 43 1012.4
20260510212020 78 355 0.0 0.0 0.00 0.00 0.00 42 1012.4
20260510211828 78 319 0.0 0.0 0.00 0.00 0.00 42 1012.5
20260510210542 77 11 0.0 0.0 0.00 0.00 0.00 43 1012.5
20260510210327 77 13 0.0 0.0 0.00 0.00 0.00 43 1012.6
20260510205041 76 17 0.0 0.0 0.00 0.00 0.00 44 1012.6
20260510204843 76 17 0.0 0.0 0.00 0.00 0.00 45 1013.0
20260510203535 76 342 0.0 0.0 0.00 0.00 0.00 44 1013.0
20260510203345 76 342 0.0 0.0 0.00 0.00 0.00 45 1013.0
20260510202021 76 340 0.0 0.0 0.00 0.00 0.00 47 1013.0
20260510201826 76 350 0.0 0.0 0.00 0.00 0.00 45 1013.1
20260510200524 74 321 0.0 0.0 0.00 0.00 0.00 48 1013.1
20260510200328 74 21 0.0 0.0 0.00 0.00 0.00 47 1013.1
20260510195042 74 319 0.0 0.0 0.00 0.00 0.00 48 1013.1
20260510194831 74 319 0.0 0.0 0.00 0.00 0.00 48 1013.2
20260510193524 73 313 0.0 0.0 0.00 0.00 0.00 47 1013.2
20260510193328 74 313 0.0 0.0 0.00 0.00 0.00 47 1013.3
20260510192022 72 313 0.0 0.0 0.00 0.00 0.00 49 1013.3
20260510191827 72 313 0.0 0.0 0.00 0.00 0.00 48 1013.5
20260510190520 71 5 0.0 0.0 0.00 0.00 0.00 50 1013.5
20260510190328 70 331 0.0 0.0 0.00 0.00 0.00 52 1013.6
20260510185020 70 329 0.0 0.0 0.00 0.00 0.00 53 1013.6
20260510184825 70 329 0.0 0.0 0.00 0.00 0.00 52 1013.7
20260510183602 69 323 0.0 0.0 0.00 0.00 0.00 52 1013.7
20260510183323 68 323 0.0 0.0 0.00 0.00 0.00 54 1013.8
20260510182016 68 14 0.0 0.0 0.00 0.00 0.00 56 1013.8
20260510181829 68 15 0.0 0.0 0.00 0.00 0.00 55 1013.9
20260510180526 67 336 0.0 0.0 0.00 0.00 0.00 57 1013.9
20260510180331 67 336 0.0 0.0 0.00 0.00 0.00 56 1014.1
20260510175025 66 339 0.0 0.0 0.00 0.00 0.00 58 1014.1
20260510174858 66 339 0.0 0.0 0.00 0.00 0.00 57 1014.1
20260510173532 64 333 0.0 0.0 0.00 0.00 0.00 61 1014.1
20260510173336 64 333 0.0 0.0 0.00 0.00 0.00 62 1014.1
20260510172029 63 9 0.0 0.0 0.00 0.00 0.00 62 1014.1
20260510171856 63 337 0.0 0.0 0.00 0.00 0.00 63 1014.1
20260510170531 63 5 0.0 0.0 0.00 0.00 0.00 63 1014.1
20260510170340 63 5 0.0 0.0 0.00 0.00 0.00 64 1014.2
20260510165033 61 5 0.0 0.0 0.00 0.00 0.00 67 1014.2
20260510164857 61 355 0.0 0.0 0.00 0.00 0.00 67 1014.1
20260510163530 60 355 0.0 0.0 0.00 0.00 0.00 71 1014.1
20260510163335 60 355 0.0 0.0 0.00 0.00 0.00 71 1014.2
20260510162032 58 355 0.0 0.0 0.00 0.00 0.00 74 1014.2
20260510161841 58 355 0.0 0.0 0.00 0.00 0.00 74 1014.1
20260510160555 58 340 0.0 0.0 0.00 0.00 0.00 76 1014.1
20260510160339 58 340 0.0 0.0 0.00 0.00 0.00 76 1014.1
20260510155034 57 340 0.0 0.0 0.00 0.00 0.00 77 1014.1
20260510154840 57 340 0.0 0.0 0.00 0.00 0.00 77 1014.1
20260510153534 57 340 0.0 0.0 0.00 0.00 0.00 78 1014.1
20260510153343 57 340 0.0 0.0 0.00 0.00 0.00 78 1014.0
20260510152037 56 340 0.0 0.0 0.00 0.00 0.00 79 1014.0
20260510151842 56 340 0.0 0.0 0.00 0.00 0.00 79 1013.8
20260510150534 56 340 0.0 0.0 0.00 0.00 0.00 80 1013.8
20260510150401 56 340 0.0 0.0 0.00 0.00 0.00 80 1013.7
20260510145054 55 340 0.0 0.0 0.00 0.00 0.00 80 1013.7
20260510144823 55 340 0.0 0.0 0.00 0.00 0.00 80 1013.7
20260510143517 55 340 0.0 0.0 0.00 0.00 0.00 81 1013.7
20260510143325 55 340 0.0 0.0 0.00 0.00 0.00 81 1013.6
20260510142040 55 340 0.0 0.0 0.00 0.00 0.00 81 1013.6
20260510141822 55 340 0.0 0.0 0.00 0.00 0.00 81 1013.5
20260510140537 55 340 0.0 0.0 0.00 0.00 0.00 81 1013.5
20260510140326 55 340 0.0 0.0 0.00 0.00 0.00 81 1013.6
20260510135019 55 340 0.0 0.0 0.00 0.00 0.00 81 1013.6
20260510134825 55 340 0.0 0.0 0.00 0.00 0.00 81 1013.4
20260510133519 55 340 0.0 0.0 0.00 0.00 0.00 81 1013.4
20260510133344 55 340 0.0 0.0 0.00 0.00 0.00 82 1013.2
20260510132036 55 340 0.0 0.0 0.00 0.00 0.00 82 1013.2
20260510131825 55 340 0.0 0.0 0.00 0.00 0.00 81 1013.1
20260510130602 56 339 0.0 0.0 0.00 0.00 0.00 81 1013.1
20260510130323 56 339 0.0 0.0 0.00 0.00 0.00 81 1013.2
20260510125036 56 339 0.0 0.0 0.00 0.00 0.00 81 1013.2
20260510124840 56 339 0.0 0.0 0.00 0.00 0.00 81 1013.2
20260510123534 56 339 0.0 0.0 0.00 0.00 0.00 81 1013.2
20260510123344 56 339 0.0 0.0 0.00 0.00 0.00 81 1013.2
20260510122036 56 339 0.0 0.0 0.00 0.00 0.00 81 1013.2
20260510121841 56 339 0.0 0.0 0.00 0.00 0.00 81 1013.3
20260510120554 56 338 0.0 0.0 0.00 0.00 0.00 81 1013.3
20260510120338 56 338 0.0 0.0 0.00 0.00 0.00 81 1013.3
20260510115033 56 338 0.0 0.0 0.00 0.00 0.00 81 1013.3
20260510114841 56 338 0.0 0.0 0.00 0.00 0.00 81 1013.3
20260510113534 56 338 0.0 0.0 0.00 0.00 0.00 81 1013.3
20260510113319 56 338 0.0 0.0 0.00 0.00 0.00 81 1013.3
20260510112035 56 338 0.0 0.0 0.00 0.00 0.00 81 1013.3
20260510111901 56 338 0.0 0.0 0.00 0.00 0.00 81 1013.2
20260510110533 56 338 0.0 0.0 0.00 0.00 0.00 81 1013.2
20260510110324 56 338 0.0 0.0 0.00 0.00 0.00 81 1013.2
20260510105038 56 335 0.0 0.0 0.00 0.00 0.00 81 1013.2
20260510104824 56 334 0.0 0.0 0.00 0.00 0.00 81 1013.2
20260510103539 56 331 0.0 0.0 0.00 0.00 0.00 81 1013.2
20260510103328 56 331 0.0 0.0 0.00 0.00 0.00 81 1013.3
20260510102021 56 331 0.0 0.0 0.00 0.00 0.00 81 1013.3
20260510101826 56 331 0.0 0.0 0.00 0.00 0.00 81 1013.3
20260510100540 56 331 0.0 0.0 0.00 0.00 0.00 81 1013.3
20260510100322 56 331 0.0 0.0 0.00 0.00 0.00 81 1013.4
20260510095020 57 331 0.0 0.0 0.00 0.00 0.00 81 1013.4
20260510094846 57 331 0.0 0.0 0.00 0.00 0.00 81 1013.5
20260510093559 57 331 0.0 0.0 0.00 0.00 0.00 81 1013.5
20260510093347 57 331 0.0 0.0 0.00 0.00 0.00 81 1013.4
20260510092023 57 342 0.0 0.0 0.00 0.00 0.00 82 1013.4
20260510091828 57 342 0.0 0.0 0.00 0.00 0.00 81 1013.5
20260510090522 57 342 0.0 0.0 0.00 0.00 0.00 81 1013.5
20260510090348 57 342 0.0 0.0 0.00 0.00 0.00 81 1013.5
20260510085020 57 342 0.0 0.0 0.00 0.00 0.00 81 1013.5
20260510084829 57 342 0.0 0.0 0.00 0.00 0.00 81 1013.5
20260510083602 57 342 0.0 0.0 0.00 0.00 0.00 81 1013.5
20260510083322 57 342 0.0 0.0 0.00 0.00 0.00 81 1013.6
20260510082034 57 342 0.0 0.0 0.00 0.00 0.00 81 1013.6
20260510081823 57 342 0.0 0.0 0.00 0.00 0.00 81 1013.6
20260510080536 57 342 0.0 0.0 0.00 0.00 0.00 81 1013.6
20260510080345 57 342 0.0 0.0 0.00 0.00 0.00 81 1013.6
20260510075037 57 342 0.0 0.0 0.00 0.00 0.00 80 1013.6
20260510074823 57 342 0.0 0.0 0.00 0.00 0.00 80 1013.6
20260510073536 57 342 0.0 0.0 0.00 0.00 0.00 81 1013.6
20260510073322 57 342 0.0 0.0 0.00 0.00 0.00 81 1013.6
20260510072036 57 342 0.0 0.0 0.00 0.00 0.00 81 1013.6
20260510071826 57 342 0.0 0.0 0.00 0.00 0.00 80 1013.7
20260510070519 57 342 0.0 0.0 0.00 0.00 0.00 80 1013.7
20260510070328 57 342 0.0 0.0 0.00 0.00 0.00 80 1013.6
20260510065023 57 341 0.0 0.0 0.00 0.00 0.00 80 1013.6
20260510064833 57 341 0.0 0.0 0.00 0.00 0.00 80 1013.6
20260510063522 57 310 0.0 0.0 0.00 0.00 0.00 80 1013.6
20260510063330 57 310 0.0 0.0 0.00 0.00 0.00 80 1013.6
20260510062027 57 310 0.0 0.0 0.00 0.00 0.00 80 1013.6
20260510061853 57 310 0.0 0.0 0.00 0.00 0.00 81 1013.7
20260510060526 57 310 0.0 0.0 0.00 0.00 0.00 81 1013.7
20260510060336 57 310 0.0 0.0 0.00 0.00 0.00 81 1013.7
20260510055046 57 310 0.0 0.0 0.00 0.00 0.00 81 1013.7
20260510054834 57 310 0.0 0.0 0.00 0.00 0.00 81 1013.7
20260510053547 57 310 0.0 0.0 0.00 0.00 0.00 80 1013.7
20260510053331 57 310 0.0 0.0 0.00 0.00 0.00 80 1013.7
20260510052025 58 310 0.0 0.0 0.00 0.00 0.00 79 1013.7
20260510051850 58 309 0.0 0.0 0.00 0.00 0.00 79 1013.7
20260510050524 58 309 0.0 0.0 0.00 0.00 0.00 78 1013.7
20260510050332 58 310 0.0 0.0 0.00 0.00 0.00 78 1013.6
20260510045046 59 310 0.0 0.0 0.00 0.00 0.00 77 1013.6
20260510044851 59 309 0.0 0.0 0.00 0.00 0.00 77 1013.6
20260510043523 59 309 0.0 0.0 0.00 0.00 0.00 75 1013.6
20260510043331 59 309 0.0 0.0 0.00 0.00 0.00 75 1013.5
20260510042024 60 309 0.0 0.0 0.00 0.00 0.00 75 1013.5
20260510041834 60 310 0.0 0.0 0.00 0.00 0.00 74 1013.5
20260510040529 60 309 0.0 0.0 0.00 0.00 0.00 73 1013.5
20260510040333 60 265 0.0 0.0 0.00 0.00 0.00 73 1013.3
20260510035027 61 257 0.0 0.0 0.00 0.00 0.00 72 1013.3
20260510034836 61 257 0.0 0.0 0.00 0.00 0.00 72 1013.1
20260510033531 61 257 0.0 0.0 0.00 0.00 0.00 71 1013.1
20260510033337 61 257 0.0 0.0 0.00 0.00 0.00 70 1013.1
20260510032031 62 355 0.0 0.0 0.00 0.00 0.00 69 1013.1
20260510031839 62 355 0.0 0.0 0.00 0.00 0.00 68 1012.9
20260510030534 63 355 0.0 0.0 0.00 0.00 0.00 66 1012.9
20260510030325 63 355 0.0 0.0 0.00 0.00 0.00 65 1012.9
20260510025037 65 355 0.0 0.0 0.00 0.00 0.00 63 1012.9
20260510024841 65 282 0.0 0.0 0.00 0.00 0.00 63 1012.7
20260510023534 67 300 0.0 0.0 0.00 0.00 0.00 59 1012.7
20260510023401 67 300 0.0 0.0 0.00 0.00 0.00 58 1012.6
20260510022033 69 300 0.0 0.0 0.00 0.00 0.00 56 1012.6
20260510021822 69 300 0.0 0.0 0.00 0.00 0.00 56 1012.7
20260510020519 69 12 0.0 0.0 0.00 0.00 0.00 56 1012.7
20260510020324 69 12 0.0 0.0 0.00 0.00 0.00 56 1012.6
20260510015038 69 310 0.0 0.0 0.00 0.00 0.00 55 1012.6
20260510014827 69 310 0.0 0.0 0.00 0.00 0.00 56 1012.6
20260510013521 70 298 0.0 0.0 0.00 0.00 0.00 54 1012.6
20260510013326 70 313 0.0 0.0 0.00 0.00 0.00 53 1012.5
20260510012021 70 346 1.0 0.0 0.00 0.00 0.00 54 1012.5
20260510011824 70 27 1.0 0.0 0.00 0.00 0.00 53 1012.5
20260510010633 71 342 0.0 0.0 0.00 0.00 0.00 52 1012.5
20260510010328 71 350 1.0 0.0 0.00 0.00 0.00 52 1012.5
20260510005022 72 319 0.0 0.0 0.00 0.00 0.00 49 1012.5
20260510004828 72 360 0.0 0.0 0.00 0.00 0.00 50 1012.5
20260510003521 72 292 1.0 0.0 0.00 0.00 0.00 50 1012.5
20260510003325 72 15 1.0 0.0 0.00 0.00 0.00 51 1012.4
20260510002019 73 333 0.0 0.0 0.00 0.00 0.00 48 1012.4
20260510001829 73 337 0.0 0.0 0.00 0.00 0.00 48 1012.4
20260510000522 73 279 1.0 0.0 0.00 0.00 0.00 50 1012.4
20260510000328 73 28 1.0 0.0 0.00 0.00 0.00 51 1012.2
20260509235021 74 275 0.0 0.0 0.00 0.00 0.00 49 1012.2
20260509234846 74 355 0.0 0.0 0.00 0.00 0.00 48 1012.2
20260509233539 76 314 0.0 0.0 0.00 0.00 0.00 46 1012.2
20260509233331 76 5 0.0 0.0 0.00 0.00 0.00 47 1012.2
20260509232025 75 303 0.0 0.0 0.00 0.00 0.00 47 1012.1
20260509231830 75 349 0.0 0.0 0.00 0.00 0.00 48 1012.2
20260509230544 75 5 2.0 0.0 0.00 0.00 0.00 47 1012.2
20260509230328 75 13 1.0 0.0 0.00 0.00 0.00 46 1012.3